[[{"header":{"parameterUnit":"m.s-1","parameterCategory":1,"la1":30.2992,"la2":30.254,"lo1":-89.0895,"lo2":-89.0443,"dy":0.0025,"dx":0.0025,"nx":19,"ny":19,"refTime":"2026-03-25T21:00:00:Z","depth":0,"parameterNumber":2,"parameterNumberName":"U-component_of_WINDS"},"data":[0,0,0,-2.099,-2.0991,-2.1022,-2.1022,-2.1071,-2.1071,0,0,0,0,0,0,0,0,0,0,0,-2.0986,-2.0987,-2.099,-2.0991,-2.1022,-2.1022,-2.1071,-2.1071,0,0,0,0,0,0,0,0,0,0,0,-2.0986,-2.0987,-2.0988,-2.0991,-2.1022,-2.1022,-2.1071,-2.1044,0,0,0,0,0,0,0,0,0,0,-2.1011,-2.1015,-2.0987,-2.0988,-2.0991,-2.1022,-2.1022,-2.1042,-2.1045,-2.106,0,-2.1076,0,-2.1075,-2.1075,-2.1075,0,0,0,-2.0986,-2.1012,-2.1015,-2.0988,-2.0991,-2.1022,-2.1006,-2.1044,-2.1047,-2.1065,-2.1077,-2.1079,-2.1076,-2.1076,-2.1076,-2.1182,-2.1182,0,0,-2.0984,-2.0995,-2.1013,-2.1018,-2.1015,-2.1005,-2.1007,-2.1046,-2.106,-2.1077,-2.108,-2.1076,-2.1076,-2.1076,-2.1181,-2.1182,0,0,0,-2.0982,-2.0994,-2.0996,-2.1016,-2.1021,-2.1007,-2.1009,-2.1058,-2.1058,-2.108,-2.1077,-2.1076,-2.1077,-2.118,-2.1181,-2.1227,0,0,0,-2.0981,-2.0993,-2.0996,-2.1003,-2.1021,-2.104,-2.102,-2.1055,-2.1059,-2.1077,-2.1076,-2.1078,-2.1179,-2.1181,-2.1224,-2.1247,0,0,0,-2.0982,-2.0993,-2.1,-2.1003,-2.1017,-2.1039,-2.1041,-2.1056,-2.1057,-2.1075,-2.1078,-2.1179,-2.118,-2.1222,-2.1242,-2.1277,0,0,0,-2.0987,-2.104,-2.1001,-2.106,-2.1017,-2.1068,-2.1041,-2.1078,-2.1099,-2.1077,-2.1179,-2.1181,-2.1221,-2.124,-2.1275,-2.1308,-2.1324,0,0,-2.106,-2.105,-2.1083,-2.1049,-2.111,-2.1062,-2.113,-2.1138,-2.1129,-2.1164,-2.1167,-2.1225,-2.1242,-2.1277,-2.1407,-2.142,0,0,0,-2.111,-2.1135,-2.1148,-2.1169,-2.1178,-2.1186,-2.1184,-2.1187,-2.1216,-2.115,-2.1248,-2.1257,-2.1277,-2.1293,-2.1303,-2.1319,-2.1189,-2.1189,-2.1189,-2.123,-2.1217,-2.1271,-2.1262,-2.1282,-2.1279,-2.1294,-2.1298,-2.1278,-2.1301,-2.1311,-2.1392,-2.1411,-2.1418,-2.1435,-2.1329,-2.1329,-2.1329,-2.1329,-2.1336,-2.1368,-2.1341,-2.1384,-2.1369,-2.1405,-2.1404,-2.1389,-2.1419,-2.1383,-2.14,-2.1361,-2.1432,-2.1446,-2.1332,-2.1332,-2.1331,-2.1331,-2.1331,-2.1412,-2.1425,-2.1429,-2.1458,-2.1481,-2.147,-2.15,-2.1486,-2.1472,-2.1489,-2.1498,-2.1497,-2.1493,-2.1495,-2.1495,-2.1495,-2.1495,-2.1496,-2.1496,-2.1489,-2.1492,-2.152,-2.1534,-2.1545,-2.1558,-2.1556,-2.1567,-2.1575,-2.1561,-2.1561,-2.1539,-2.1442,-2.1418,-2.15,-2.1499,-2.1499,-2.1498,-2.1498,-2.16,-2.1573,-2.1616,-2.1628,-2.1643,-2.1667,-2.1649,-2.1671,-2.1678,-2.1694,-2.1668,-2.1599,-2.1587,-2.1578,-2.1558,-2.1671,-2.1671,-2.1671,-2.1671,-2.1664,-2.1656,-2.1697,-2.1717,-2.1734,-2.1722,-2.1771,-2.1769,-2.1764,-2.1767,-2.1748,-2.172,-2.1713,-2.1705,-2.1693,-2.1674,-2.1814,-2.1815,-2.1815,-2.1731,-2.1724,-2.1769,-2.1764,-2.1774,-2.1783,-2.1828,-2.1851,-2.1839,-2.182,-2.1769,-2.1763,-2.1717,-2.1703,-2.1683,-2.1666,-2.163,0,0]},{"header":{"parameterUnit":"m.s-1","parameterCategory":1,"la1":30.2992,"la2":30.254,"lo1":-89.0895,"lo2":-89.0443,"dy":0.0025,"dx":0.0025,"nx":19,"ny":19,"refTime":"2026-03-25T21:00:00:Z","depth":0,"parameterNumber":3,"parameterNumberName":"V-component_of_WINDS"},"data":[0,0,0,0.1647,0.1647,0.1673,0.1673,0.1706,0.1707,0,0,0,0,0,0,0,0,0,0,0,0.1638,0.1638,0.1647,0.1647,0.1673,0.1673,0.1706,0.1707,0,0,0,0,0,0,0,0,0,0,0,0.1638,0.1638,0.1639,0.1648,0.1673,0.1673,0.1706,0.1687,0,0,0,0,0,0,0,0,0,0,0.1662,0.1652,0.1638,0.1639,0.1648,0.1673,0.1673,0.1686,0.1688,0.1694,0,0.1699,0,0.1703,0.1709,0.1709,0,0,0,0.1648,0.1651,0.1659,0.1639,0.1648,0.1673,0.1662,0.1687,0.169,0.1697,0.1699,0.17,0.1704,0.1709,0.1709,0.1742,0.1742,0,0,0.1647,0.1642,0.1657,0.166,0.1655,0.1661,0.1663,0.1689,0.1691,0.1699,0.1701,0.1704,0.1709,0.1709,0.1742,0.1742,0,0,0,0.1642,0.1641,0.1649,0.1659,0.1664,0.1662,0.1664,0.169,0.1692,0.1702,0.1705,0.1709,0.171,0.1741,0.1742,0.1743,0,0,0,0.1641,0.1638,0.1648,0.1645,0.1663,0.1677,0.1664,0.1691,0.1694,0.1704,0.1709,0.171,0.1741,0.1742,0.1743,0.1745,0,0,0,0.1637,0.1638,0.1641,0.1645,0.1656,0.1676,0.1681,0.1691,0.1696,0.1709,0.171,0.1741,0.1741,0.1743,0.1744,0.1753,0,0,0,0.1631,0.1641,0.1641,0.1655,0.1656,0.1677,0.1681,0.1697,0.1708,0.1709,0.1741,0.1742,0.1743,0.1744,0.1752,0.1759,0.1761,0,0,0.1642,0.1643,0.1651,0.1652,0.1672,0.1674,0.1695,0.1709,0.1715,0.1733,0.1733,0.1743,0.1744,0.1753,0.1776,0.1778,0,0,0,0.1653,0.1659,0.1666,0.1677,0.1689,0.17,0.1712,0.1718,0.1734,0.1723,0.1749,0.1749,0.1755,0.1758,0.176,0.1765,0.1743,0.1743,0.1743,0.1662,0.1669,0.1684,0.1695,0.1706,0.172,0.173,0.174,0.1743,0.175,0.1755,0.1768,0.1772,0.1773,0.1778,0.1759,0.1759,0.1759,0.1759,0.1679,0.1689,0.1695,0.1712,0.1721,0.1735,0.175,0.1752,0.1767,0.1764,0.1769,0.1765,0.1775,0.178,0.1759,0.1759,0.1759,0.1759,0.1759,0.1685,0.1692,0.1699,0.1718,0.1732,0.1743,0.1758,0.1765,0.1771,0.1776,0.1783,0.1783,0.1785,0.1779,0.1779,0.1779,0.1779,0.1779,0.1779,0.1689,0.1697,0.1709,0.1725,0.1734,0.1747,0.1763,0.1773,0.1785,0.1789,0.1789,0.1793,0.1774,0.177,0.178,0.178,0.178,0.178,0.178,0.1703,0.1702,0.172,0.1729,0.1749,0.1764,0.1773,0.1793,0.1802,0.1809,0.1813,0.1798,0.1799,0.1798,0.1794,0.181,0.181,0.181,0.181,0.1709,0.171,0.1732,0.1747,0.1762,0.1774,0.1796,0.1809,0.1823,0.1829,0.1828,0.1824,0.1822,0.1825,0.1823,0.1819,0.1842,0.1842,0.1842,0.1718,0.1723,0.1739,0.1753,0.177,0.1785,0.1806,0.1824,0.184,0.1843,0.1835,0.1833,0.1827,0.1824,0.1826,0.1823,0.1817,0,0]}]]